Location: Unspecified
(38.9820°N, 94.4650°W)
Time: 07:42:32
(UTC-05:00)

N. Korean satellite - Visible Passes

Search period start: 16 October 2019 00:00
Search period end: 26 October 2019 00:00
Orbit: 455 x 508 km, 97.2° (Epoch: 15 October)

Date Brightness Start Highest point End Pass type
(mag) Time Alt. Az. Time Alt. Az. Time Alt. Az.
16 Oct 10.1 06:17:06 10° ENE 06:19:13 15° E 06:21:21 10° SE visible
17 Oct 10.4 19:33:54 10° WSW 19:35:05 11° W 19:36:16 10° WNW visible
18 Oct 7.5 06:58:38 10° NNE 07:02:11 54° E 07:05:46 10° S visible
18 Oct 9.3 19:06:48 10° SSW 19:09:37 24° W 19:12:28 10° NW visible
19 Oct 9.3 06:33:47 10° NE 06:36:50 25° E 06:39:52 10° SSE visible
20 Oct 10.3 06:09:51 10° ENE 06:11:23 12° E 06:12:54 10° ESE visible
21 Oct 10.0 19:25:14 10° SW 19:27:11 14° W 19:29:09 10° WNW visible
22 Oct 8.1 06:50:53 10° NNE 06:54:22 42° E 06:57:53 10° S visible
22 Oct 8.8 18:58:41 10° SSW 19:01:44 30° W 19:04:50 10° NNW visible
23 Oct 9.6 06:26:11 10° NE 06:28:58 20° E 06:31:46 10° SE visible
25 Oct 6.9 07:08:11 10° NNE 07:11:51 77° E 07:15:33 10° S visible
25 Oct 9.8 19:16:50 10° SW 19:19:16 18° W 19:21:43 10° NW visible
